SCP
0 0 0 0 0 0 0 0 0 0 0 0 0 0 0 0 0 0 0 0 0 0 0 0 0 0 0 0 0 0 0 0 0 0 0 0 0 0 0 -0 -0 -0 -0 -0
0 0 0 0 0 0 0 0 0 0 0 0 0 0 0 0 0 0 0 0 0 0 0 0 0 0 0 0 0 0 0 0 0 0 0 0 0 0 0 0 -0 -0 -0 -0
0 0 0 0 0 0 0 0 0 0 0 0 0 0 0 0 0 0 0 0 0 0 0 0 0 0 0 0 0 0 0 0 0 0 0 0 0 0 0 0 0 0 0 0
0 0 0 0 0 0 0 0 0 0 0 0 0 0 0 0 0 0 0 0 0 0 0 0 0 0 0 0 0 0 0 0 0 0 0 0 0 0 0 0 0 0 0 0
0 0 0 0 0 0 0 0 0 0 0 0 0 0 0 0 0 0 0 0 0 0 0 0 0 0 0 0 0 0 0 0 0 0 0 0 0 0 0 0 0 0 0 0
0 0 0 0 0 0 0 0 0 0 0 0 0 0 0 0 0 0 0 0 0 0 0 0 0 0 0 0 0 0 0 0 0 0 0 0 0 0 0 0 0 0 0 0
0 0 0 0 0 0 0 0 0 0 0 0 0 0 0 0 0 0 0 0 0 0 0 0 0 0 0 0 0 0 0 0 0 0 0 0 0 0 0 0 0 0 0 0
0 0 0 0 0 0 0 0 0 0 0 0 0 0 0 0 0 0 0 0 0 0 0 0 0 0 0 0 0 0 0 0 0 0 0 0 0 0 0 0 0 0 0 0
0 0 0 0 0 0 0 0 0 0 0 0 0 0 0 0 0 0 0 0 0 0 0 0 0 0 0 0 0 0 0 0 0 0 0 0 0 0 0 0 0 0 0 0
0 0 0 0 0 0 0 0 0 0 0 0 0 0 0 0 0 0 0 0 0 0 0 0 0 0 0 0 0 0 0 0 0 0 0 0 0 0 0 0 0 0 0 0
0 0 0 0 0 0 0 0 0 0 0 0 0 0 0 0 0 0 0 0 0 0 0 0 0 0 0 0 0 0 0 0 0 0 0 0 0 0 0 0 0 0 0 0
0 0 0 0 0 0 0 0 0 0 0 0 0 0 0 0 0 0 0 0 0 0 0 0 0 0 0 0 0 0 0 0 0 0 0 0 0 0 0 0 0 0 0 0
0 0 0 0 0 0 0 0 0 0 0 0 0 0 0 0 0 0 0 0 0 0 0 0 0 0 0 0 0 0 0 0 0 0 0 0 0 0 0 0 0 0 0 0
0 0 0 0 0 0 0 0 0 0 0 0 0 0 0 0 0 0 0 0 0 0 0 0 0 0 0 0 0 0 0 0 0 0 0 0 0 0 0 0 0 0 0 0
0 0 0 0 0 0 0 0 0 0 0 0 0 0 0 0 0 0 0 0 0 0 0 0 0 0 0 0 0 0 0 0 0 0 0 0 0 0 0 0 0 0 0 0
0 0 0 0 0 -0 -0 -0 0 0 0 0 0 0 0 0 0 0 0 -0 -0 0 0 0 0 0 0 0 0 0 0 0 0 0 0 0 0 0 0 0 0 0 0 0
0 0 0 0 -0 -0 -0 -0 -0 -0 -0 0 0 0 0 0 0 0 0 0 0 0 0 0 0 0 0 0 0 0 0 0 0 0 0 0 0 0 0 0 0 0 0 0
0 0 0 0 0 -0 -0 -0 -0 -0 -0 0 0 0 0 0 0 0 0 0 0 0 0 0 0 0 0 0 0 0 0 0 0 0 0 0 0 0 0 0 0 0 0 0
0 0 0 0 0 0 0 -0 -0 -0 -0 0 0 0 0 0 0 0 0 0 0 0 0 0 0 0 0 0 0 0 0 0 0 0 0 0 0 0 0 0 0 0 0 0
0 0 0 0 0 0 0 0 0 0 0 0 0 0 0 0 0 0 0 0 0 0 0 0 0 0 0 0 0 0 0 0 0 0 0 0 0 0 0 0 0 0 0 0
0 0 0 0 0 0 0 0 0 0 0 0 0 0 0 0 0 0 0 0 0 0 0 0 0 0 0 0 0 0 0 0 0 0 0 0 0 0 0 0 0 0 0 0
0 0 0 0 0 0 0 0 0 0 0 0 0 0 0 0 0 0 0 0 0 0 0 0 0 0 0 0 0 0 0 0 0 0 0 0 0 0 0 0 0 0 0 0
0 0 0 0 0 0 0 0 0 0 0 0 0 0 0 0 0 0 0 0 0 0 0 0 0 0 0 0 0 0 0 0 0 0 0 0 0 0 0 0 0 0 0 0
0 0 0 0 0 0 0 0 0 0 0 0 0 0 0 0 0 0 0 0 0 0 0 0 0 0 0 0 0 0 0 0 0 0 0 0 0 0 0 0 0 0 0 0
0 0 0 0 0 0 0 0 0 0 0 0 0 0 0 0 0 0 0 0 0 0 0 0 0 0 0 0 0 0 0 0 0 0 0 0 0 0 0 0 0 0 0 0
0 0 0 0 0 0 0 0 0 0 0 0 0 0 0 0 0 0 0 0 0 0 0 0 0 0 0 0 0 0 0 0 0 0 0 0 0 0 0 0 0 0 0 0
Wind_Speed
9 8 8 10 10 8 9 10 9 9 10 8 6 6 6 5 4 4 5 6 5 5 7 7 6 6 5 5 4 6 7 5 4 2 1 2 2 1 2 2 3 2 3 4
8 9 10 9 9 8 8 8 8 9 10 7 7 8 7 6 5 4 4 4 6 7 8 7 7 6 5 5 4 5 6 6 5 2 1 2 2 1 2 0 2 1 3 4
9 7 8 8 8 8 8 5 7 9 9 7 7 7 7 7 7 5 5 4 4 6 8 7 7 5 5 5 5 3 5 7 6 4 2 2 2 1 1 1 1 1 1 2
4 5 8 8 8 6 4 5 7 10 9 7 7 6 7 8 6 6 5 5 5 5 5 5 6 5 5 5 4 4 5 6 5 5 3 2 1 0 1 0 1 0 2 1
4 7 9 8 7 5 3 6 7 8 7 5 7 6 6 7 6 6 6 6 5 6 5 4 4 4 3 3 3 3 4 5 5 4 4 1 0 0 0 0 1 0 1 2
6 5 4 4 4 3 5 6 6 5 2 3 7 6 5 5 7 8 7 7 7 6 6 5 5 5 4 4 4 4 4 4 4 3 3 3 2 2 2 2 1 1 1 1
7 7 6 6 7 5 7 6 3 3 2 4 6 5 5 8 9 9 8 8 7 6 6 6 6 5 4 4 3 3 4 3 3 2 2 3 2 2 2 0 1 1 1 1
8 8 8 6 5 5 6 3 0 1 3 4 6 7 9 10 9 9 9 9 8 7 6 6 5 4 3 3 3 3 3 3 3 3 2 1 1 1 0 0 1 1 1 1
4 6 7 5 4 3 4 4 2 3 4 4 6 11 10 9 9 9 9 8 7 7 6 6 5 4 4 3 3 3 3 2 3 3 2 2 1 1 1 1 2 1 1 1
4 6 8 6 5 4 3 2 4 3 2 4 9 11 10 12 10 9 8 8 7 6 6 6 5 5 4 4 3 3 2 1 1 1 2 1 1 1 1 2 2 2 2 1
4 5 8 8 7 8 8 6 4 4 4 2 4 4 10 12 11 10 9 8 7 6 6 5 4 5 5 4 3 3 2 1 1 0 0 0 1 1 2 2 2 2 3 3
4 4 8 9 5 2 4 4 4 3 2 1 3 5 8 11 10 10 10 8 7 6 6 5 5 5 5 4 3 3 2 2 1 1 1 1 1 1 2 3 3 3 3 3
3 3 5 7 6 6 6 5 5 5 3 2 3 8 7 9 10 9 10 8 7 6 6 5 5 4 4 3 3 3 3 2 2 1 2 2 2 1 2 2 2 3 3 3
3 5 5 3 1 7 9 6 5 6 4 3 4 12 12 11 10 9 9 8 8 7 6 5 5 4 4 3 3 4 3 3 2 2 2 3 3 2 3 3 3 3 4 3
5 7 7 3 1 2 5 7 7 8 8 5 4 11 14 14 12 11 10 9 8 7 6 6 5 4 4 4 3 4 3 3 3 3 2 3 4 4 4 4 4 4 5 5
6 8 7 5 5 5 7 8 9 9 7 5 2 4 9 12 12 11 10 10 8 7 6 5 4 4 4 3 3 3 4 3 3 3 3 3 4 4 4 4 4 4 4 5
7 8 8 7 6 6 9 12 12 10 8 6 5 5 10 12 12 12 10 9 9 8 6 5 4 4 3 3 3 4 3 3 4 4 4 4 4 4 5 6 5 5 5 5
7 7 5 7 6 9 2 3 4 6 6 5 3 8 10 10 8 8 8 8 8 8 6 5 4 3 2 3 3 3 3 4 4 5 5 5 4 4 5 5 5 5 4 5
7 6 5 6 8 7 4 6 6 5 5 5 6 10 11 11 9 7 8 8 7 7 6 4 3 3 3 3 3 3 3 4 5 5 4 4 4 4 5 5 5 5 5 5
6 7 7 6 7 6 3 9 6 4 4 6 9 12 13 12 8 7 9 9 8 7 5 4 3 3 3 3 3 3 3 4 5 4 4 4 4 4 4 4 4 5 5 5
8 8 9 9 8 3 7 9 7 5 3 7 9 12 13 10 5 9 12 9 8 6 5 4 3 3 2 1 1 1 3 4 3 3 3 3 4 4 3 3 4 5 5 5
9 7 9 8 9 5 10 7 5 4 5 6 7 9 9 7 6 10 11 9 8 6 5 4 3 3 2 1 1 1 2 2 2 1 2 3 4 4 4 3 4 4 5 5
7 5 3 4 2 6 6 5 5 5 5 5 6 7 7 8 9 10 9 8 7 7 5 4 4 3 3 2 1 0 1 0 1 2 2 3 4 3 2 3 4 4 4 3
6 2 2 1 6 7 6 5 4 3 3 4 5 6 7 7 7 8 8 7 6 6 5 4 4 3 3 3 3 2 1 1 1 2 3 3 3 3 3 3 3 3 3 3
0 2 3 4 3 4 5 5 5 3 3 3 4 5 6 7 7 6 6 6 5 5 4 4 4 3 3 3 3 2 1 1 2 3 3 3 3 3 3 3 3 3 3 3
5 4 4 4 3 3 5 5 5 4 4 4 4 4 5 5 6 6 6 5 5 5 4 4 4 4 3 3 2 1 1 2 2 2 3 2 2 2 3 3 4 6 7 9
Wind_Direction
192 206 207 204 212 234 221 202 193 165 164 173 169 150 151 163 167 167 160 161 166 169 149 132 131 134 138 142 144 130 139 139 126 124 107 90 80 37 77 77 79 1 360 10
187 212 211 209 210 233 236 202 167 145 154 158 158 137 140 143 146 128 132 148 166 156 134 137 144 148 153 152 167 163 150 138 130 126 119 123 105 71 102 86 115 41 32 19
200 196 202 205 202 217 229 192 163 154 149 162 138 125 128 126 111 105 105 110 112 124 133 143 143 144 150 161 183 173 137 137 140 138 99 64 72 312 103 148 112 102 84 46
213 183 185 200 205 202 201 174 179 168 164 168 157 136 135 124 113 109 94 84 80 89 100 116 126 141 161 168 176 161 141 138 134 134 117 121 115 18 86 66 116 186 144 104
194 187 187 197 198 185 195 168 180 189 185 171 161 137 137 128 125 109 99 95 95 95 95 96 105 114 113 115 112 106 108 114 118 123 134 153 199 296 64 39 101 305 145 145
188 176 178 204 175 170 168 183 189 209 209 197 175 137 142 146 131 117 107 97 91 95 95 87 81 84 84 85 88 91 98 102 112 133 156 175 200 217 234 229 188 269 229 178
162 166 172 191 169 179 208 195 184 174 160 202 180 132 124 114 112 112 109 99 89 84 90 88 84 83 83 94 101 109 121 127 140 172 210 196 210 245 249 207 189 243 280 149
159 165 175 189 200 188 207 215 214 186 184 169 178 128 117 111 105 103 100 97 92 86 85 90 94 96 100 106 115 128 136 147 162 187 221 230 216 240 276 154 260 243 234 183
182 164 167 178 247 283 205 183 220 272 223 178 139 109 123 127 123 112 103 97 92 88 86 85 82 87 93 102 111 121 139 159 171 189 204 213 242 224 275 279 273 286 265 225
231 156 162 171 217 228 265 253 191 225 220 178 147 152 157 152 139 126 115 106 98 92 87 86 87 86 86 89 99 110 108 116 136 182 209 187 230 236 226 286 308 312 296 250
230 187 168 182 211 208 202 216 233 229 229 186 151 119 145 149 142 135 123 112 104 95 89 84 82 83 85 88 84 91 98 79 62 360 290 259 215 245 239 245 254 267 278 264
228 255 186 186 179 296 265 259 240 260 265 181 123 105 120 133 131 128 122 115 108 101 94 89 83 80 74 77 85 77 84 90 64 3 343 300 241 235 260 245 234 253 272 286
321 265 194 171 176 200 226 250 285 293 286 234 153 131 130 127 125 126 126 123 118 114 107 96 86 79 74 63 78 82 61 67 83 42 353 337 332 308 297 298 270 271 277 278
287 264 263 263 283 181 196 202 246 278 275 258 132 140 158 152 145 140 136 134 129 121 112 104 96 86 75 56 54 70 54 41 59 72 15 342 336 339 328 323 328 312 303 284
256 264 261 237 260 207 206 201 211 243 266 284 149 154 169 164 157 151 146 141 134 126 116 107 101 93 85 70 53 63 63 47 47 51 38 4 348 355 347 340 334 325 317 312
241 274 278 251 220 234 244 237 228 232 250 263 186 145 147 151 151 151 151 148 142 132 123 115 107 100 92 87 73 70 61 53 57 59 43 26 2 355 348 337 331 320 310 310
222 248 268 266 222 221 238 228 223 225 229 228 215 153 142 148 155 159 154 153 145 135 128 121 107 87 79 75 65 66 67 61 58 56 41 28 11 358 350 343 337 326 321 315
270 257 259 265 240 239 215 98 184 208 213 209 178 136 147 147 139 137 142 147 143 138 133 124 112 101 81 71 68 64 72 69 61 51 33 18 9 358 347 341 332 324 316 308
255 269 264 256 257 251 182 159 163 181 201 189 167 145 143 135 132 146 150 144 137 134 131 126 124 116 86 56 37 39 52 58 58 46 27 15 6 353 345 338 332 327 323 313
235 252 255 255 252 260 134 134 139 171 203 180 162 152 149 148 165 174 156 145 137 134 133 129 121 99 80 52 27 23 44 57 56 39 16 3 350 340 337 335 330 323 317 313
198 217 232 249 256 255 115 126 142 188 186 154 156 155 160 171 166 144 145 144 139 137 138 138 133 119 103 58 9 26 46 53 56 36 2 344 335 324 324 333 324 317 318 320
186 198 208 221 238 223 138 155 169 116 103 126 138 150 159 152 122 131 141 143 146 146 150 152 150 146 143 128 12 40 57 48 39 355 316 313 311 315 335 335 323 322 324 321
199 217 204 203 152 94 130 116 96 106 124 124 131 140 143 141 139 142 145 149 155 159 164 166 165 172 171 156 157 266 109 39 302 298 295 290 293 297 314 321 320 321 326 330
200 190 278 205 143 146 139 118 112 99 107 107 123 139 147 150 149 151 155 160 165 170 172 173 180 193 190 175 182 202 197 231 280 298 299 296 305 320 323 315 308 315 319 319
5 148 226 250 191 154 167 165 155 144 135 127 134 150 155 158 162 165 167 167 170 174 173 182 192 197 205 199 199 199 194 223 273 280 287 300 306 305 304 306 302 301 281 271
265 232 221 236 229 202 175 168 162 165 175 166 168 169 166 171 171 173 173 171 175 182 184 191 198 204 215 220 216 204 204 219 256 273 283 284 291 298 299 297 298 288 278 280